Weather History for Shelby, NC

Change the Weather History Date:

Monday, July 29, 2013

  Actual Average (KHKY) Record (KHKY)
Temperature  
Mean Temperature 74 °F -  
Max Temperature 83 °F 86 °F 105 °F (1952)
Min Temperature 65 °F 67 °F 62 °F (1960)
Cooling Degree Days 9    
Growing Degree Days 24 (Base 50)    
Moisture  
Dew Point 65 °F    
Average Humidity 74    
Maximum Humidity 98    
Minimum Humidity 48    
Precipitation  
Precipitation 0.00 in - - ()
Sea Level Pressure  
Sea Level Pressure 30.11 in    
Wind  
Wind Speed 1 mph (ENE)    
Max Wind Speed 5 mph    
Max Gust Speed -    
Visibility 9 miles    
Events      
Averages and records for this station are not official NWS values.
T = Trace of Precipitation, MM = Missing Value Source: NWS Daily Summary

Daily Weather History Graph

Daily Weather History Graph

Search for Another Location

Airport:

Trip Planner

Search our weather history database for the weather conditions in past years. The results will help you decide how hot, cold, wet, or windy it might be!

Date:

Astronomy

Jul. 29, 2013 Rise Set
Actual Time 6:33 AM EDT 8:32 PM EDT
Civil Twilight 6:05 AM EDT 9:00 PM EDT
Nautical Twilight 5:30 AM EDT 9:34 PM EDT
Astronomical Twilight 4:54 AM EDT 10:10 PM EDT
Moon 12:11 AM EDT (7/29) 1:54 PM EDT (7/29)
Length of Visible Light 14h 55m
Length of Day
13h 58m
Waning Gibbous, 51% of the Moon is Illuminated
Jul 29
Waning Gibbous
Jul 29
Last Quarter
Aug 6
New
Aug 14
First Quarter
Aug 20
Full

Hourly Weather History & Observations

Time (EDT) Temp. Heat Index Dew Point Humidity Pressure Visibility Wind Dir Wind Speed Gust Speed Precip Events Conditions
12:15 AM 73.0 °F - 68.9 °F 87% 30.04 in 10.0 mi Calm Calm - N/A   Clear
12:35 AM 73.0 °F - 67.6 °F 83% 30.04 in 10.0 mi Calm Calm - N/A   Clear
12:55 AM 71.1 °F - 68.0 °F 90% 30.04 in 10.0 mi Calm Calm - N/A   Clear
1:15 AM 70.0 °F - 68.0 °F 93% 30.04 in 7.0 mi Calm Calm - N/A   Clear
1:35 AM 70.0 °F - 68.2 °F 94% 30.05 in 10.0 mi Calm Calm - N/A   Clear
1:55 AM 69.1 °F - 68.0 °F 96% 30.05 in 7.0 mi Calm Calm - N/A   Clear
2:15 AM 68.9 °F - 68.0 °F 97% 30.04 in 5.0 mi Calm Calm - N/A   Clear
2:35 AM 68.9 °F - 68.0 °F 97% 30.04 in 5.0 mi NW 3.5 mph - N/A   Clear
2:55 AM 68.2 °F - 67.3 °F 97% 30.04 in 7.0 mi Calm Calm - N/A   Clear
3:15 AM 68.9 °F - 67.6 °F 96% 30.04 in 5.0 mi Calm Calm - N/A   Clear
3:55 AM 67.6 °F - 66.6 °F 96% 30.04 in 5.0 mi Calm Calm - N/A   Clear
4:15 AM 67.1 °F - 66.2 °F 97% 30.05 in 5.0 mi Calm Calm - N/A   Clear
4:35 AM 67.1 °F - 66.2 °F 97% 30.05 in 7.0 mi Calm Calm - N/A   Clear
4:55 AM 67.1 °F - 66.2 °F 97% 30.06 in 5.0 mi Calm Calm - N/A   Clear
5:15 AM 67.1 °F - 66.2 °F 97% 30.07 in 5.0 mi Calm Calm - N/A   Clear
5:35 AM 66.7 °F - 65.8 °F 97% 30.07 in 7.0 mi Calm Calm - N/A   Clear
5:55 AM 67.1 °F - 66.2 °F 97% 30.07 in 5.0 mi Calm Calm - N/A   Clear
6:15 AM 66.2 °F - 65.3 °F 97% 30.08 in 3.0 mi Calm Calm - N/A   Clear
6:35 AM 65.8 °F - 65.3 °F 98% 30.09 in 5.0 mi Calm Calm - N/A   Clear
6:55 AM 65.3 °F - 64.6 °F 98% 30.10 in 3.0 mi Calm Calm - N/A   Clear
7:15 AM 66.0 °F - 65.3 °F 98% 30.09 in 5.0 mi Calm Calm - N/A   Clear
7:35 AM 66.6 °F - 65.7 °F 97% 30.10 in 4.0 mi Calm Calm - N/A   Clear
7:55 AM 67.1 °F - 65.7 °F 95% 30.11 in 7.0 mi Calm Calm - N/A   Clear
8:15 AM 68.0 °F - 65.3 °F 91% 30.12 in 10.0 mi NNE 3.5 mph - N/A   Clear
8:35 AM 68.9 °F - 64.6 °F 86% 30.12 in 10.0 mi NNE 4.6 mph - N/A   Clear
8:55 AM 70.7 °F - 65.1 °F 82% 30.12 in 10.0 mi Calm Calm - N/A   Clear
9:15 AM 72.9 °F - 64.9 °F 76% 30.12 in 10.0 mi Calm Calm - N/A   Clear
9:35 AM 75.0 °F - 65.1 °F 71% 30.13 in 10.0 mi ENE 4.6 mph - N/A   Clear
9:55 AM 74.8 °F - 63.5 °F 68% 30.13 in 10.0 mi NE 4.6 mph - N/A   Clear
10:15 AM 76.1 °F - 64.2 °F 67% 30.13 in 10.0 mi NE 3.5 mph - N/A   Clear
10:35 AM 76.1 °F - 65.8 °F 70% 30.13 in 10.0 mi NNE 3.5 mph - N/A   Clear
10:55 AM 77.4 °F - 63.5 °F 62% 30.14 in 10.0 mi East 4.6 mph - N/A   Clear
11:15 AM 77.5 °F - 61.9 °F 58% 30.14 in 10.0 mi East 3.5 mph - N/A   Clear
11:35 AM 78.8 °F - 62.4 °F 57% 30.14 in 10.0 mi ENE 3.5 mph - N/A   Clear
11:55 AM 79.3 °F - 62.8 °F 57% 30.14 in 10.0 mi Calm Calm - N/A   Clear
12:15 PM 80.1 °F 81.2 °F 62.2 °F 54% 30.15 in 10.0 mi NE 3.5 mph - N/A   Clear
12:35 PM 80.1 °F 81.1 °F 61.0 °F 52% 30.14 in 10.0 mi East 3.5 mph - N/A   Clear
12:55 PM 80.2 °F 81.4 °F 62.4 °F 54% 30.14 in 10.0 mi SSE 3.5 mph - N/A   Clear
1:15 PM 80.8 °F 82.2 °F 63.5 °F 56% 30.14 in 10.0 mi West 4.6 mph - N/A   Scattered Clouds
1:35 PM 80.1 °F 81.5 °F 63.1 °F 56% 30.14 in 10.0 mi East 3.5 mph - N/A   Mostly Cloudy
1:55 PM 81.3 °F 82.6 °F 63.1 °F 54% 30.13 in 10.0 mi Calm Calm - N/A   Scattered Clouds
2:15 PM 80.4 °F 81.7 °F 63.0 °F 55% 30.13 in 10.0 mi Calm Calm - N/A   Mostly Cloudy
2:35 PM 81.3 °F 82.6 °F 63.1 °F 54% 30.12 in 10.0 mi Calm Calm - N/A   Scattered Clouds
2:55 PM 81.9 °F 83.2 °F 63.5 °F 54% 30.12 in 10.0 mi Calm Calm - N/A   Clear
3:15 PM 82.0 °F 83.1 °F 63.0 °F 52% 30.11 in 10.0 mi Calm Calm - N/A   Scattered Clouds
3:35 PM 83.1 °F 84.4 °F 63.9 °F 52% 30.10 in 10.0 mi Calm Calm - N/A   Mostly Cloudy
3:55 PM 82.2 °F 83.5 °F 63.3 °F 53% 30.10 in 10.0 mi Calm Calm - N/A   Scattered Clouds
4:15 PM 83.3 °F 84.1 °F 62.4 °F 49% 30.10 in 10.0 mi NW 4.6 mph - N/A   Clear
4:35 PM 82.9 °F 83.7 °F 62.2 °F 49% 30.10 in 10.0 mi Calm Calm - N/A   Clear
4:55 PM 83.3 °F 83.9 °F 61.9 °F 48% 30.10 in 10.0 mi Calm Calm - N/A   Clear
5:15 PM 83.5 °F 84.7 °F 63.7 °F 51% 30.10 in 10.0 mi East 4.6 mph - N/A   Scattered Clouds
5:35 PM 83.7 °F 84.9 °F 63.5 °F 51% 30.11 in 10.0 mi South 3.5 mph - N/A   Scattered Clouds
5:55 PM 83.8 °F 85.3 °F 64.4 °F 52% 30.11 in 10.0 mi Calm Calm - N/A   Scattered Clouds
6:15 PM 83.3 °F 84.3 °F 63.0 °F 50% 30.11 in 10.0 mi SSE 3.5 mph - N/A   Scattered Clouds
6:35 PM 83.3 °F 83.9 °F 61.9 °F 48% 30.11 in 10.0 mi Calm Calm - N/A   Clear
6:55 PM 82.9 °F 83.7 °F 61.9 °F 49% 30.10 in 10.0 mi Calm Calm - N/A   Clear
7:15 PM 82.8 °F 84.3 °F 64.4 °F 54% 30.11 in 10.0 mi Calm Calm - N/A   Clear
7:35 PM 82.0 °F 83.6 °F 64.4 °F 55% 30.11 in 10.0 mi Calm Calm - N/A   Clear
7:55 PM 81.0 °F 83.2 °F 66.4 °F 61% 30.12 in 10.0 mi Calm Calm - N/A   Clear
8:15 PM 80.1 °F 82.0 °F 65.5 °F 61% 30.13 in 10.0 mi Calm Calm - N/A   Clear
8:35 PM 79.9 °F - 65.3 °F 61% 30.14 in 10.0 mi Calm Calm - N/A   Clear
8:55 PM 78.1 °F - 68.2 °F 71% 30.15 in 10.0 mi Calm Calm - N/A   Clear
9:15 PM 76.5 °F - 67.6 °F 74% 30.15 in 10.0 mi Calm Calm - N/A   Clear
9:35 PM 75.2 °F - 68.2 °F 79% 30.16 in 10.0 mi Calm Calm - N/A   Clear
9:55 PM 74.7 °F - 67.3 °F 78% 30.17 in 10.0 mi Calm Calm - N/A   Clear
10:15 PM 74.3 °F - 67.6 °F 80% 30.18 in 10.0 mi Calm Calm - N/A   Clear
10:35 PM 71.2 °F - 68.0 °F 89% 30.19 in 10.0 mi Calm Calm - N/A   Clear
10:55 PM 71.6 °F - 68.0 °F 88% 30.19 in 10.0 mi Calm Calm - N/A   Clear
11:15 PM 71.4 °F - 67.8 °F 88% 30.18 in 10.0 mi Calm Calm - N/A   Clear
11:35 PM 70.0 °F - 68.0 °F 93% 30.18 in 10.0 mi Calm Calm - N/A   Clear
11:55 PM 70.2 °F - 67.8 °F 92% 30.18 in 10.0 mi Calm Calm - N/A   Clear